Regional Weather Roundup
Issued by NWS Raleigh/Durham, NC

Home | Current Version | Previous Version | Text Only | Print | Product List | Glossary On
Versions: 1 2 3 4 5 6 7 8 9 10 11 12 13 14 15 16 17 18 19 20 21 22 23 24 25 26 27 28 29 30 31 32 33 34 35 36 37 38 39 40 41 42 43 44 45 46 47 48 49 50
000
ASUS42 KRAH 080410
RWRRAH
NORTH CAROLINA WEATHER ROUNDUP
NATIONAL WEATHER SERVICE RALEIGH NC
1200 AM EDT WED JUL 08 2015

NOTE: "FAIR" INDICATES FEW OR NO CLOUDS BELOW 12,000 FEET WITH NO
SIGNIFICANT WEATHER AND/OR OBSTRUCTIONS TO VISIBILITY.

NCZ001-053-055-056-065-067-080500-
WESTERN NORTH CAROLINA

CITY           SKY/WX    TMP DP  RH WIND       PRES   REMARKS
ASHEVILLE      MOCLDY    73  66  78 S5        30.22R
JEFFERSON      MOCLDY    68  57  68 CALM      30.25R
MORGANTON      PTCLDY    73  67  83 CALM      30.18S
HICKORY        PTCLDY    80  66  62 SW8       30.13R
RUTHERFORDTON  MOCLDY    73  68  87 CALM      30.15S
MOUNT AIRY     MOCLDY    74  70  87 CALM      30.14S
BOONE          MOCLDY    65  64  96 CALM      30.26S
$$

NCZ021-022-025-041-071-084-088-080500-
CENTRAL NORTH CAROLINA

CITY           SKY/WX    TMP DP  RH WIND       PRES   REMARKS
CHARLOTTE      MOCLDY    81  66  60 SW6       30.13R
GREENSBORO     MOCLDY    78  71  79 S7        30.10S
WINSTON-SALEM  MOCLDY    82  65  56 VRB5      30.12S
RALEIGH-DURHAM MOCLDY    80  72  76 SW10      30.11S
FORT BRAGG     NOT AVBL
FAYETTEVILLE   PTCLDY    78  71  79 S8        30.12R
BURLINGTON     PTCLDY    79  72  79 S7        30.10S
LAURINBURG     PTCLDY    77  70  79 SW8       30.13S HAZE
$$

NCZ011-015-027-028-043-044-047-080-103-080500-
NORTHEASTERN NORTH CAROLINA

CITY           SKY/WX    TMP DP  RH WIND       PRES   REMARKS
ROCKY MT-WILSO CLEAR     80  72  76 S9        30.11S
GREENVILLE     CLEAR     79  72  78 S10       30.13S
WASHINGTON     CLEAR     78  73  84 SW7       30.13R
ELIZABETH CITY CLEAR     79  73  82 SW9       30.10S
MANTEO         CLEAR     79  73  83 SW13      30.12S
CAPE HATTERAS  CLEAR     77  75  93 SW12      30.15R
$$

NCZ078-087-090-091-093-098-101-080500-
SOUTHEASTERN NORTH CAROLINA

CITY           SKY/WX    TMP DP  RH WIND       PRES   REMARKS
LUMBERTON      PTCLDY    78  70  76 SW8       30.13R
GOLDSBORO      NOT AVBL
KINSTON        PTCLDY    78  72  81 S7        30.13S
KENANSVILLE    CLEAR     76  71  85 CALM      30.14S
NEW BERN       CLEAR     78  73  84 S6        30.15S
CHERRY POINT   CLEAR     79  74  84 S8        30.15S
BEAUFORT       CLEAR     80  76  87 SW17      30.15S
JACKSONVILLE   CLEAR     76  72  87 S6        30.14S
WILMINGTON     CLEAR     79  73  82 S9        30.15S
$$



USA.gov is the U.S. government's official web portal to all federal, state and local government web resources and services.